Regional Weather Roundup
Issued by NWS Lake Charles, LA

Home | Current Version | Previous Version | Text Only | Print | Product List | Glossary On
Versions: 1 2 3 4 5 6 7 8 9 10 11 12 13 14 15 16 17 18 19 20 21 22 23 24 25 26 27 28
000
ASUS44 KLCH 201110
RWRLCH
RWRLCH
REGIONAL WEATHER ROUNDUP
NATIONAL WEATHER SERVICE LAKE CHARLES LA
600 AM CDT SUN APR 20 2014

Note: "fair" indicates few or no clouds below 12,000 feet with no
significant weather and/or obstructions to visibility.


ACROSS SOUTHEAST TEXAS

CITY           SKY/WX    TMP DP  RH WIND       PRES   REMARKS
BEAUMONT       PTCLDY    57  57 100 N5        30.13R FOG
BEAUMONT CITY  FOG       57  57 100 N5        30.14R VSB 1/4
ORANGE         FOG       56  56 100 CALM      30.15R VSB 1/4
JASPER         CLEAR     52  51  97 CALM      30.17R FOG
$$

ACROSS CENTRAL LOUISIANA

CITY           SKY/WX    TMP DP  RH WIND       PRES   REMARKS
LEESVILLE      CLEAR     54  52  93 CALM      30.15S
FULLERTON        N/A     54  50  86 CALM      30.13R
ALEXANDRIA INT CLEAR     53  53 100 CALM      30.13S FOG
ESLER FIELD    PTCLDY    51  49  92 CALM      30.15R FOG
DERIDDER         N/A     54  53  94 CALM      30.17R
OAKDALE        SUNNY     49  48  95 CALM      30.15S
OPELOUSAS        N/A     53  53 100 CALM      30.14S FOG
$$

ACROSS SOUTHWEST AND SOUTH CENTRAL LOUISIANA

CITY           SKY/WX    TMP DP  RH WIND       PRES   REMARKS
SULPHUR        SUNNY     59  59 100 CALM      30.15R
LAKE CHARLES   CLEAR     57  55  93 CALM      30.14S FOG
CHENNAULT INT  CLEAR     57  55  94 CALM      30.15S
CAMERON PHI    FOG       61  61 100 NE7       30.14R VSB 1/4
DEQUINCY         N/A     52  51  97 CALM      30.15R
JENNINGS         N/A     59  59 100 NW3       30.14S FOG
LAFAYETTE      CLEAR     57  53  86 CALM      30.14S
NEW IBERIA     CLEAR     58  54  86 CALM      30.14S
ABBEVILLE      FOG      N/A N/A N/A CALM      30.14R VSB 1/4
PATTERSON      CLEAR     55  55 100 CALM      30.16S
SALT POINT       N/A     65  62  90 CALM      30.13R
$$

SELECTED SITES ACROSS THE REGION

CITY           SKY/WX    TMP DP  RH WIND       PRES   REMARKS
HOUSTON BUSH   MOCLDY    62  60  93 CALM      30.14R FOG
HOUSTON HOBBY  FOG       62  61  96 NW3       30.13R VSB 1/4
GALVESTON      CLEAR     63  63 100 S3        30.13R
COLLEGE STAT   MOCLDY    60  59  96 SE6       30.14S FOG
CONROE         CLOUDY    57  56  96 CALM      30.15R
HUNTSVILLE     CLOUDY    61  59  93 S5        30.14S
LUFKIN         CLEAR     56  53  90 CALM      30.15R FOG
SHREVEPORT     MOCLDY    56  53  90 CALM      30.15R
MONROE         PTCLDY    54  54 100 CALM      30.16S
NATCHEZ MS     CLEAR     52  48  87 CALM      30.15R
BATON ROUGE    CLEAR     55  51  86 CALM      30.14R
N.O. INTL ARPT PTCLDY    60  57  89 CALM      30.13R
SLIDELL        CLEAR     51  49  92 CALM      30.14R
$$

MARINE REPORTS

STATION/POSITION TIME  TEMP    WIND        PRES    VSBY  WAVE
                       AIR SEA DIR/SP/G                  HT/PER
                 (UTC) (F)     (DEG/KT/KT) (MB)    (MI)  (FT/S)
BUOY 30 S HIGH I 1100   66 67   CALM  /  4 1019.5R         1/ 7
SEA RIM ST PARK  1000   61      30/  3/  3 1020.3F
PORT ARTHUR      1100      67   30/  1/  3 1020.2R
SABINE PASS N    1100   62 67   10/  3/  3 1020.0R
TEXAS POINT      1100   61 67  360/  5/  5 1020.3R
CALCASIEU PASS   1100   63 68   30/  6/  6 1021.2R
LK CHARLES BEACH 1100   62 67              1021.3S
MARSH ISLAND     1000   66     330/  9/ 11   N/A
FRESH WATER LOCK 1100   62 69  320/  4/  5 1020.2S
AMERADA PASS     1100   63 61  310/  2/  3 1020.3R
$$



USA.gov is the U.S. government's official web portal to all federal, state and local government web resources and services.